Terug naar catalogus

DELTA 2 R/B(2)

PAM-D

ActiefHEO
NORAD 28876·ROCKET BODY·🇺🇸 United States

Gelanceerd Sep 26, 2005 vanaf Cape Canaveral Space Force Station

Loading…

Volgende Passages (komende 24 uur)

TLE

VersSource: Space-Track

Epoch: Sep 14, 2026, 21:18 UTC

1 28876U 05038C   26257.88810634  .00022066  00000-0  12592-2 0  9994
2 28876  39.4613 243.6721 5050385  55.3524 342.5155  5.60956790355054

Volg DELTA 2 R/B(2) in realtime met AllMySat

Download on the App Store